Location: ????? ???????
(25.7275°N, 32.5929°E)
Time: 10:37:59
(UTC+00:00)

Delta 7925 Rocket - Pass Details

Date: 02 March 2021
Orbit: 645 x 1648 km, 26.3° (Epoch: 15 April)

Event Time Altitude Azimuth Distance (km) Brightness Sun altitude
Rises 16:31:10 0° 263° (W) 3,102 9.0 -9.6°
Reaches altitude 10° 16:33:40 10° 263° (W) 2,107 7.4 -10.2°
Maximum altitude 16:38:27 90° 345° (NNW) 645 3.1 -11.3°
Enters shadow 16:42:00 17° 84° (E) 1,616 4.5 -12.1°
